| time (UTC) | temp F | wind direction | speed MPH | gust MPH | rain 1hr in | rain 24hr in | rain mn in | humidity % | barometer mb |
| 20260905191013 | 96 | 313 | 1.0 | 8.0 | 0.00 | 0.00 | 0.00 | 46 | 1009.6 |
| 20260905190511 | 96 | 171 | 1.0 | 7.0 | 0.00 | 0.00 | 0.00 | 47 | 1009.7 |
| 20260905190035 | 96 | 131 | 2.0 | 8.0 | 0.00 | 0.00 | 0.00 | 46 | 1009.8 |
| 20260905185510 | 96 | 26 | 1.0 | 6.0 | 0.00 | 0.00 | 0.00 | 46 | 1010.0 |
| 20260905185009 | 96 | 99 | 2.0 | 7.0 | 0.00 | 0.00 | 0.00 | 46 | 1010.1 |
| 20260905184509 | 95 | 109 | 2.0 | 7.0 | 0.00 | 0.00 | 0.00 | 47 | 1010.1 |
| 20260905184008 | 95 | 175 | 0.0 | 6.0 | 0.00 | 0.00 | 0.00 | 49 | 1010.2 |
| 20260905183508 | 95 | 140 | 1.0 | 8.0 | 0.00 | 0.00 | 0.00 | 48 | 1010.3 |
| 20260905183013 | 95 | 159 | 3.0 | 8.0 | 0.00 | 0.00 | 0.00 | 48 | 1010.4 |
| 20260905182506 | 95 | 169 | 2.0 | 11.0 | 0.00 | 0.00 | 0.00 | 50 | 1010.5 |
| 20260905182005 | 94 | 71 | 4.0 | 11.0 | 0.00 | 0.00 | 0.00 | 50 | 1010.5 |
| 20260905181508 | 94 | 51 | 1.0 | 6.0 | 0.00 | 0.00 | 0.00 | 50 | 1010.6 |
| 20260905181004 | 94 | 15 | 2.0 | 8.0 | 0.00 | 0.00 | 0.00 | 50 | 1010.8 |
| 20260905180506 | 94 | 248 | 3.0 | 8.0 | 0.00 | 0.00 | 0.00 | 49 | 1010.9 |
| 20260905180002 | 93 | 246 | 2.0 | 9.0 | 0.00 | 0.00 | 0.00 | 51 | 1010.9 |
| 20260905175501 | 93 | 61 | 1.0 | 9.0 | 0.00 | 0.00 | 0.00 | 52 | 1010.9 |
| 20260905175001 | 92 | 150 | 2.0 | 7.0 | 0.00 | 0.00 | 0.00 | 53 | 1011.1 |
| 20260905174500 | 92 | 109 | 2.0 | 14.0 | 0.00 | 0.00 | 0.00 | 53 | 1011.0 |
| 20260905174100 | 93 | 155 | 2.0 | 14.0 | 0.00 | 0.00 | 0.00 | 52 | 1011.0 |
| 20260905173559 | 92 | 200 | 3.0 | 10.0 | 0.00 | 0.00 | 0.00 | 55 | 1011.0 |
| 20260905173058 | 90 | 116 | 2.0 | 8.0 | 0.00 | 0.00 | 0.00 | 60 | 1011.1 |
| 20260905172558 | 90 | 169 | 4.0 | 8.0 | 0.00 | 0.00 | 0.00 | 59 | 1011.1 |
| 20260905172057 | 89 | 227 | 2.0 | 9.0 | 0.00 | 0.00 | 0.00 | 60 | 1011.2 |
| 20260905171603 | 90 | 105 | 2.0 | 9.0 | 0.00 | 0.00 | 0.00 | 59 | 1011.4 |
| 20260905171056 | 90 | 205 | 4.0 | 10.0 | 0.00 | 0.00 | 0.00 | 60 | 1011.4 |
| 20260905170556 | 90 | 108 | 2.0 | 9.0 | 0.00 | 0.00 | 0.00 | 59 | 1011.5 |
| 20260905170055 | 88 | 176 | 4.0 | 9.0 | 0.00 | 0.00 | 0.00 | 61 | 1011.6 |
| 20260905165557 | 90 | 157 | 2.0 | 9.0 | 0.00 | 0.00 | 0.00 | 58 | 1011.7 |
| 20260905165055 | 90 | 30 | 4.0 | 9.0 | 0.00 | 0.00 | 0.00 | 58 | 1011.7 |
| 20260905164600 | 90 | 85 | 2.0 | 8.0 | 0.00 | 0.00 | 0.00 | 59 | 1011.7 |
| 20260905164053 | 89 | 195 | 2.0 | 8.0 | 0.00 | 0.00 | 0.00 | 61 | 1011.7 |
| 20260905163552 | 87 | 268 | 2.0 | 7.0 | 0.00 | 0.00 | 0.00 | 65 | 1011.7 |
| 20260905163052 | 86 | 211 | 4.0 | 7.0 | 0.00 | 0.00 | 0.00 | 66 | 1011.7 |
| 20260905162551 | 86 | 142 | 3.0 | 9.0 | 0.00 | 0.00 | 0.00 | 67 | 1011.7 |
| 20260905162053 | 86 | 194 | 2.0 | 9.0 | 0.00 | 0.00 | 0.00 | 66 | 1011.8 |
| 20260905161549 | 87 | 224 | 3.0 | 7.0 | 0.00 | 0.00 | 0.00 | 67 | 1011.8 |
| 20260905161049 | 86 | 211 | 3.0 | 10.0 | 0.00 | 0.00 | 0.00 | 67 | 1011.9 |
| 20260905160550 | 87 | 189 | 4.0 | 7.0 | 0.00 | 0.00 | 0.00 | 67 | 1011.9 |
| 20260905160047 | 86 | 219 | 3.0 | 9.0 | 0.00 | 0.00 | 0.00 | 68 | 1011.9 |
| 20260905155546 | 86 | 213 | 4.0 | 9.0 | 0.00 | 0.00 | 0.00 | 68 | 1011.8 |
| 20260905155045 | 85 | 244 | 3.0 | 8.0 | 0.00 | 0.00 | 0.00 | 70 | 1011.8 |
| 20260905154544 | 85 | 234 | 3.0 | 9.0 | 0.00 | 0.00 | 0.00 | 71 | 1011.8 |
| 20260905154042 | 84 | 191 | 4.0 | 9.0 | 0.00 | 0.00 | 0.00 | 72 | 1011.8 |
| 20260905153541 | 84 | 211 | 2.0 | 5.0 | 0.00 | 0.00 | 0.00 | 74 | 1011.8 |
| 20260905153052 | 84 | 157 | 0.0 | 5.0 | 0.00 | 0.00 | 0.00 | 75 | 1011.7 |
| 20260905152539 | 84 | 163 | 2.0 | 6.0 | 0.00 | 0.00 | 0.00 | 75 | 1011.7 |
| 20260905152039 | 83 | 227 | 2.0 | 4.0 | 0.00 | 0.00 | 0.00 | 75 | 1011.7 |
| 20260905151542 | 83 | 149 | 2.0 | 4.0 | 0.00 | 0.00 | 0.00 | 75 | 1011.7 |
| 20260905151037 | 83 | 167 | 2.0 | 5.0 | 0.00 | 0.00 | 0.00 | 76 | 1011.7 |
| 20260905150537 | 83 | 209 | 2.0 | 7.0 | 0.00 | 0.00 | 0.00 | 76 | 1011.7 |
| 20260905150037 | 83 | 150 | 3.0 | 7.0 | 0.00 | 0.00 | 0.00 | 77 | 1011.7 |
| 20260905145536 | 82 | 99 | 2.0 | 6.0 | 0.00 | 0.00 | 0.00 | 78 | 1011.7 |
| 20260905145036 | 82 | 148 | 0.0 | 6.0 | 0.00 | 0.00 | 0.00 | 79 | 1011.7 |
| 20260905144536 | 82 | 148 | 1.0 | 5.0 | 0.00 | 0.00 | 0.00 | 78 | 1011.6 |
| 20260905144036 | 82 | 169 | 1.0 | 5.0 | 0.00 | 0.00 | 0.00 | 78 | 1011.6 |
| 20260905143535 | 82 | 146 | 2.0 | 4.0 | 0.00 | 0.00 | 0.00 | 78 | 1011.7 |
| 20260905143038 | 82 | 146 | 1.0 | 4.0 | 0.00 | 0.00 | 0.00 | 78 | 1011.7 |
| 20260905142533 | 82 | 200 | 1.0 | 4.0 | 0.00 | 0.00 | 0.00 | 78 | 1011.7 |
| 20260905142034 | 82 | 68 | 1.0 | 3.0 | 0.00 | 0.00 | 0.00 | 79 | 1011.6 |
| 20260905141534 | 82 | 110 | 1.0 | 4.0 | 0.00 | 0.00 | 0.00 | 80 | 1011.6 |
| 20260905141032 | 81 | 136 | 2.0 | 4.0 | 0.00 | 0.00 | 0.00 | 81 | 1011.6 |
| 20260905140534 | 81 | 17 | 1.0 | 4.0 | 0.00 | 0.00 | 0.00 | 81 | 1011.6 |
| 20260905140031 | 81 | 108 | 2.0 | 6.0 | 0.00 | 0.00 | 0.00 | 81 | 1011.4 |
| 20260905135531 | 81 | 138 | 2.0 | 6.0 | 0.00 | 0.00 | 0.00 | 81 | 1011.4 |
| 20260905135029 | 81 | 105 | 2.0 | 4.0 | 0.00 | 0.00 | 0.00 | 82 | 1011.4 |
| 20260905134529 | 81 | 170 | 1.0 | 4.0 | 0.00 | 0.00 | 0.00 | 84 | 1011.3 |
| 20260905134027 | 81 | 184 | 0.0 | 2.0 | 0.00 | 0.00 | 0.00 | 85 | 1011.1 |
| 20260905133526 | 80 | 51 | 0.0 | 2.0 | 0.00 | 0.00 | 0.00 | 85 | 1011.2 |
| 20260905133031 | 80 | 51 | 0.0 | 2.0 | 0.00 | 0.00 | 0.00 | 86 | 1011.1 |
| 20260905132524 | 80 | 51 | 0.0 | 3.0 | 0.00 | 0.00 | 0.00 | 86 | 1011.1 |
| 20260905132023 | 80 | 51 | 0.0 | 0.0 | 0.00 | 0.00 | 0.00 | 86 | 1011.1 |
| 20260905131530 | 79 | 51 | 0.0 | 0.0 | 0.00 | 0.00 | 0.00 | 86 | 1011.0 |
| 20260905131019 | 79 | 51 | 0.0 | 0.0 | 0.00 | 0.00 | 0.00 | 86 | 1010.9 |
| 20260905130518 | 79 | 51 | 0.0 | 0.0 | 0.00 | 0.00 | 0.00 | 86 | 1010.8 |
| 20260905130031 | 79 | 51 | 0.0 | 0.0 | 0.00 | 0.00 | 0.00 | 86 | 1010.8 |
| 20260905125516 | 78 | 51 | 0.0 | 0.0 | 0.00 | 0.00 | 0.00 | 86 | 1010.8 |
| 20260905125016 | 78 | 51 | 0.0 | 0.0 | 0.00 | 0.00 | 0.00 | 86 | 1010.7 |
| 20260905124515 | 78 | 51 | 0.0 | 0.0 | 0.00 | 0.00 | 0.00 | 86 | 1010.8 |
| 20260905124014 | 78 | 51 | 0.0 | 1.0 | 0.00 | 0.00 | 0.00 | 86 | 1010.7 |
| 20260905123513 | 78 | 51 | 0.0 | 1.0 | 0.00 | 0.00 | 0.00 | 86 | 1010.7 |
| 20260905123012 | 78 | 51 | 0.0 | 1.0 | 0.00 | 0.00 | 0.00 | 85 | 1010.6 |
| 20260905122513 | 78 | 51 | 0.0 | 0.0 | 0.00 | 0.00 | 0.00 | 85 | 1010.5 |
| 20260905122011 | 78 | 51 | 0.0 | 0.0 | 0.00 | 0.00 | 0.00 | 85 | 1010.5 |
| 20260905121510 | 78 | 51 | 0.0 | 0.0 | 0.00 | 0.00 | 0.00 | 85 | 1010.5 |
| 20260905121012 | 78 | 51 | 0.0 | 0.0 | 0.00 | 0.00 | 0.00 | 85 | 1010.5 |
| 20260905120510 | 78 | 51 | 0.0 | 0.0 | 0.00 | 0.00 | 0.00 | 85 | 1010.5 |
| 20260905120009 | 78 | 51 | 0.0 | 0.0 | 0.00 | 0.00 | 0.00 | 85 | 1010.5 |
| 20260905115511 | 78 | 51 | 0.0 | 0.0 | 0.00 | 0.00 | 0.00 | 85 | 1010.4 |
| 20260905115009 | 78 | 51 | 0.0 | 0.0 | 0.00 | 0.00 | 0.00 | 85 | 1010.4 |
| 20260905114513 | 78 | 51 | 0.0 | 0.0 | 0.00 | 0.00 | 0.00 | 85 | 1010.4 |
| 20260905114009 | 78 | 51 | 0.0 | 0.0 | 0.00 | 0.00 | 0.00 | 85 | 1010.3 |
| 20260905113511 | 78 | 51 | 0.0 | 0.0 | 0.00 | 0.00 | 0.00 | 84 | 1010.4 |
| 20260905113012 | 78 | 51 | 0.0 | 0.0 | 0.00 | 0.00 | 0.00 | 84 | 1010.4 |
| 20260905112508 | 78 | 51 | 0.0 | 0.0 | 0.00 | 0.00 | 0.00 | 84 | 1010.4 |
| 20260905112010 | 78 | 51 | 0.0 | 0.0 | 0.00 | 0.00 | 0.00 | 84 | 1010.3 |
| 20260905111506 | 78 | 51 | 0.0 | 0.0 | 0.00 | 0.00 | 0.00 | 84 | 1010.3 |
| 20260905111007 | 78 | 51 | 0.0 | 0.0 | 0.00 | 0.00 | 0.00 | 84 | 1010.2 |
| 20260905110506 | 78 | 51 | 0.0 | 0.0 | 0.00 | 0.00 | 0.00 | 84 | 1010.3 |
| 20260905110006 | 78 | 51 | 0.0 | 0.0 | 0.00 | 0.00 | 0.00 | 84 | 1010.2 |
| 20260905105506 | 78 | 51 | 0.0 | 0.0 | 0.00 | 0.00 | 0.00 | 84 | 1010.3 |
| 20260905105005 | 79 | 51 | 0.0 | 0.0 | 0.00 | 0.00 | 0.00 | 84 | 1010.3 |
| 20260905104505 | 79 | 51 | 0.0 | 0.0 | 0.00 | 0.00 | 0.00 | 84 | 1010.2 |
| 20260905104005 | 79 | 51 | 0.0 | 0.0 | 0.00 | 0.00 | 0.00 | 84 | 1010.3 |
| 20260905103504 | 79 | 51 | 0.0 | 1.0 | 0.00 | 0.00 | 0.00 | 83 | 1010.2 |
| 20260905103007 | 79 | 51 | 0.0 | 1.0 | 0.00 | 0.00 | 0.00 | 83 | 1010.2 |
| 20260905102503 | 79 | 51 | 0.0 | 1.0 | 0.00 | 0.00 | 0.00 | 83 | 1010.1 |
| 20260905102003 | 79 | 51 | 0.0 | 1.0 | 0.00 | 0.00 | 0.00 | 83 | 1010.2 |
| 20260905101503 | 79 | 51 | 0.0 | 1.0 | 0.00 | 0.00 | 0.00 | 83 | 1010.1 |
| 20260905101002 | 79 | 51 | 0.0 | 2.0 | 0.00 | 0.00 | 0.00 | 83 | 1010.1 |
| 20260905100502 | 79 | 51 | 0.0 | 2.0 | 0.00 | 0.00 | 0.00 | 83 | 1010.1 |
| 20260905100003 | 79 | 51 | 0.0 | 0.0 | 0.00 | 0.00 | 0.00 | 83 | 1010.0 |
| 20260905095504 | 79 | 51 | 0.0 | 1.0 | 0.00 | 0.00 | 0.00 | 83 | 1010.1 |
| 20260905095004 | 79 | 51 | 0.0 | 1.0 | 0.00 | 0.00 | 0.00 | 82 | 1010.0 |
| 20260905094504 | 79 | 51 | 0.0 | 2.0 | 0.00 | 0.00 | 0.00 | 82 | 1010.1 |
| 20260905094001 | 79 | 51 | 0.0 | 2.0 | 0.00 | 0.00 | 0.00 | 82 | 1010.1 |
| 20260905093502 | 79 | 51 | 0.0 | 2.0 | 0.00 | 0.00 | 0.00 | 82 | 1010.0 |
| 20260905093001 | 79 | 51 | 0.0 | 1.0 | 0.00 | 0.00 | 0.00 | 82 | 1010.0 |
| 20260905092600 | 79 | 51 | 0.0 | 1.0 | 0.00 | 0.00 | 0.00 | 82 | 1010.0 |
| 20260905092100 | 79 | 51 | 0.0 | 1.0 | 0.00 | 0.00 | 0.00 | 82 | 1010.1 |
| 20260905091603 | 79 | 51 | 0.0 | 0.0 | 0.00 | 0.00 | 0.00 | 82 | 1010.1 |
| 20260905091100 | 79 | 51 | 0.0 | 0.0 | 0.00 | 0.00 | 0.00 | 82 | 1010.1 |
| 20260905090559 | 80 | 51 | 0.0 | 0.0 | 0.00 | 0.00 | 0.00 | 82 | 1010.2 |
| 20260905090059 | 80 | 51 | 0.0 | 2.0 | 0.00 | 0.00 | 0.00 | 82 | 1010.2 |
| 20260905085559 | 80 | 51 | 0.0 | 2.0 | 0.00 | 0.00 | 0.00 | 81 | 1010.0 |
| 20260905085058 | 80 | 51 | 0.0 | 3.0 | 0.00 | 0.00 | 0.00 | 81 | 1010.0 |
| 20260905084616 | 80 | 51 | 0.0 | 2.0 | 0.00 | 0.00 | 0.00 | 81 | 1009.9 |
| 20260905084058 | 80 | 51 | 0.0 | 2.0 | 0.00 | 0.00 | 0.00 | 81 | 1010.0 |
| 20260905083557 | 80 | 51 | 0.0 | 2.0 | 0.00 | 0.00 | 0.00 | 81 | 1010.0 |
| 20260905083058 | 80 | 51 | 0.0 | 2.0 | 0.00 | 0.00 | 0.00 | 81 | 1010.1 |
| 20260905082557 | 80 | 51 | 0.0 | 2.0 | 0.00 | 0.00 | 0.00 | 81 | 1010.1 |
| 20260905082056 | 80 | 51 | 0.0 | 2.0 | 0.00 | 0.00 | 0.00 | 80 | 1010.1 |
| 20260905081555 | 80 | 51 | 0.0 | 2.0 | 0.00 | 0.00 | 0.00 | 80 | 1010.2 |
| 20260905081055 | 80 | 153 | 0.0 | 2.0 | 0.00 | 0.00 | 0.00 | 80 | 1010.2 |
| 20260905080554 | 80 | 66 | 0.0 | 3.0 | 0.00 | 0.00 | 0.00 | 80 | 1010.3 |
| 20260905080055 | 80 | 77 | 0.0 | 3.0 | 0.00 | 0.00 | 0.00 | 80 | 1010.4 |
| 20260905075557 | 80 | 77 | 0.0 | 2.0 | 0.00 | 0.00 | 0.00 | 80 | 1010.3 |
| 20260905075056 | 80 | 77 | 0.0 | 2.0 | 0.00 | 0.00 | 0.00 | 79 | 1010.4 |
| 20260905074558 | 80 | 77 | 0.0 | 2.0 | 0.00 | 0.00 | 0.00 | 79 | 1010.4 |
| 20260905074053 | 80 | 84 | 0.0 | 3.0 | 0.00 | 0.00 | 0.00 | 79 | 1010.3 |
| 20260905073552 | 80 | 61 | 0.0 | 3.0 | 0.00 | 0.00 | 0.00 | 79 | 1010.4 |
| 20260905073101 | 80 | 136 | 0.0 | 2.0 | 0.00 | 0.00 | 0.00 | 79 | 1010.5 |
| 20260905072551 | 80 | 58 | 0.0 | 3.0 | 0.00 | 0.00 | 0.00 | 78 | 1010.5 |
| 20260905072049 | 80 | 11 | 0.0 | 4.0 | 0.00 | 0.00 | 0.00 | 78 | 1010.6 |
| 20260905071548 | 81 | 140 | 1.0 | 4.0 | 0.00 | 0.00 | 0.00 | 78 | 1010.6 |
| 20260905071052 | 81 | 121 | 0.0 | 2.0 | 0.00 | 0.00 | 0.00 | 78 | 1010.8 |
| 20260905070548 | 81 | 167 | 0.0 | 3.0 | 0.00 | 0.00 | 0.00 | 78 | 1010.8 |
| 20260905070048 | 81 | 75 | 1.0 | 3.0 | 0.00 | 0.00 | 0.00 | 77 | 1010.8 |
| 20260905065547 | 81 | 116 | 0.0 | 3.0 | 0.00 | 0.00 | 0.00 | 77 | 1010.8 |
| 20260905065050 | 81 | 57 | 0.0 | 3.0 | 0.00 | 0.00 | 0.00 | 77 | 1010.8 |
| 20260905064547 | 81 | 57 | 0.0 | 4.0 | 0.00 | 0.00 | 0.00 | 77 | 1010.8 |
| 20260905064049 | 81 | 148 | 1.0 | 4.0 | 0.00 | 0.00 | 0.00 | 77 | 1010.8 |
| 20260905063547 | 81 | 62 | 0.0 | 4.0 | 0.00 | 0.00 | 0.00 | 76 | 1010.8 |
| 20260905063046 | 81 | 120 | 0.0 | 4.0 | 0.00 | 0.00 | 0.00 | 76 | 1010.8 |
| 20260905062547 | 81 | 158 | 0.0 | 3.0 | 0.00 | 0.00 | 0.00 | 76 | 1010.8 |
| 20260905062048 | 81 | 158 | 0.0 | 2.0 | 0.00 | 0.00 | 0.00 | 76 | 1010.9 |
| 20260905061544 | 81 | 175 | 0.0 | 5.0 | 0.00 | 0.00 | 0.00 | 75 | 1010.7 |
| 20260905061048 | 81 | 175 | 1.0 | 5.0 | 0.00 | 0.00 | 0.00 | 75 | 1010.8 |
| 20260905060546 | 81 | 175 | 1.0 | 3.0 | 0.00 | 0.00 | 0.00 | 75 | 1010.9 |
| 20260905060043 | 81 | 175 | 0.0 | 5.0 | 0.00 | 0.00 | 0.00 | 75 | 1010.9 |
| 20260905055543 | 82 | 150 | 2.0 | 5.0 | 0.00 | 0.00 | 0.00 | 75 | 1010.9 |
| 20260905055042 | 82 | 166 | 1.0 | 3.0 | 0.00 | 0.00 | 0.00 | 74 | 1010.9 |
| 20260905054546 | 82 | 61 | 1.0 | 5.0 | 0.00 | 0.00 | 0.00 | 74 | 1010.9 |
| 20260905054042 | 82 | 119 | 0.0 | 5.0 | 0.00 | 0.00 | 0.00 | 74 | 1010.9 |
| 20260905053541 | 82 | 160 | 0.0 | 7.0 | 0.00 | 0.00 | 0.00 | 73 | 1010.9 |
| 20260905053055 | 82 | 167 | 1.0 | 7.0 | 0.00 | 0.00 | 0.00 | 73 | 1010.8 |
| 20260905052539 | 82 | 130 | 2.0 | 8.0 | 0.00 | 0.00 | 0.00 | 73 | 1010.8 |
| 20260905052038 | 82 | 134 | 3.0 | 8.0 | 0.00 | 0.00 | 0.00 | 72 | 1010.9 |
| 20260905051538 | 83 | 168 | 2.0 | 10.0 | 0.00 | 0.00 | 0.00 | 72 | 1010.9 |
| 20260905051036 | 83 | 148 | 4.0 | 10.0 | 0.00 | 0.00 | 0.00 | 71 | 1010.9 |
| 20260905050536 | 83 | 88 | 2.0 | 7.0 | 0.00 | 0.00 | 0.00 | 70 | 1010.9 |
| 20260905050034 | 83 | 130 | 2.0 | 7.0 | 0.00 | 0.00 | 0.00 | 70 | 1010.9 |
| 20260905045536 | 83 | 167 | 1.0 | 8.0 | 0.00 | 0.00 | 0.00 | 69 | 1010.9 |
| 20260905045034 | 83 | 157 | 2.0 | 6.0 | 0.00 | 0.00 | 0.00 | 68 | 1010.9 |
| 20260905044534 | 83 | 166 | 1.0 | 5.0 | 0.00 | 0.00 | 0.00 | 67 | 1010.8 |
| 20260905044033 | 84 | 16 | 0.0 | 4.0 | 0.00 | 0.00 | 0.00 | 66 | 1010.9 |
| 20260905043533 | 84 | 169 | 0.0 | 3.0 | 0.00 | 0.00 | 0.00 | 66 | 1011.0 |
| 20260905043033 | 84 | 82 | 1.0 | 6.0 | 0.00 | 0.00 | 0.00 | 65 | 1010.9 |
| 20260905042532 | 84 | 117 | 1.0 | 6.0 | 0.00 | 0.00 | 0.00 | 65 | 1010.8 |
| 20260905042034 | 84 | 129 | 1.0 | 4.0 | 0.00 | 0.00 | 0.00 | 64 | 1010.8 |
| 20260905041533 | 84 | 155 | 1.0 | 3.0 | 0.00 | 0.00 | 0.00 | 64 | 1010.9 |
| 20260905041032 | 84 | 171 | 1.0 | 4.0 | 0.00 | 0.00 | 0.00 | 63 | 1010.9 |
| 20260905040534 | 84 | 122 | 1.0 | 4.0 | 0.00 | 0.00 | 0.00 | 63 | 1010.9 |
| 20260905040032 | 84 | 89 | 0.0 | 4.0 | 0.00 | 0.00 | 0.00 | 62 | 1010.8 |
| 20260905035532 | 85 | 79 | 1.0 | 4.0 | 0.00 | 0.00 | 0.00 | 62 | 1010.8 |
| 20260905035032 | 85 | 69 | 1.0 | 4.0 | 0.00 | 0.00 | 0.00 | 62 | 1010.8 |
| 20260905034532 | 85 | 84 | 1.0 | 4.0 | 0.00 | 0.00 | 0.00 | 62 | 1010.8 |
| 20260905034031 | 85 | 98 | 1.0 | 3.0 | 0.00 | 0.00 | 0.00 | 61 | 1010.7 |
| 20260905033530 | 85 | 78 | 1.0 | 4.0 | 0.00 | 0.00 | 0.00 | 61 | 1010.7 |
| 20260905033042 | 85 | 85 | 2.0 | 4.0 | 0.00 | 0.00 | 0.00 | 61 | 1010.7 |
| 20260905032530 | 85 | 103 | 1.0 | 6.0 | 0.00 | 0.00 | 0.00 | 61 | 1010.4 |
| 20260905032030 | 85 | 49 | 2.0 | 7.0 | 0.00 | 0.00 | 0.00 | 61 | 1010.4 |
| 20260905031530 | 85 | 285 | 2.0 | 7.0 | 0.00 | 0.00 | 0.00 | 61 | 1010.4 |
| 20260905031032 | 85 | 86 | 2.0 | 6.0 | 0.00 | 0.00 | 0.00 | 61 | 1010.4 |
| 20260905030529 | 85 | 57 | 1.0 | 7.0 | 0.00 | 0.00 | 0.00 | 61 | 1010.4 |
| 20260905030029 | 85 | 147 | 1.0 | 7.0 | 0.00 | 0.00 | 0.00 | 61 | 1010.4 |
| 20260905025533 | 85 | 105 | 2.0 | 9.0 | 0.00 | 0.00 | 0.00 | 62 | 1010.3 |
| 20260905025029 | 85 | 77 | 2.0 | 9.0 | 0.00 | 0.00 | 0.00 | 62 | 1010.2 |
| 20260905024529 | 85 | 85 | 2.0 | 6.0 | 0.00 | 0.00 | 0.00 | 62 | 1010.0 |
| 20260905024031 | 85 | 67 | 2.0 | 8.0 | 0.00 | 0.00 | 0.00 | 62 | 1010.0 |
| 20260905023528 | 85 | 53 | 1.0 | 8.0 | 0.00 | 0.00 | 0.00 | 62 | 1010.1 |
| 20260905023028 | 86 | 98 | 2.0 | 6.0 | 0.00 | 0.00 | 0.00 | 62 | 1010.0 |
| 20260905022527 | 86 | 98 | 2.0 | 4.0 | 0.00 | 0.00 | 0.00 | 62 | 1009.8 |
| 20260905022027 | 86 | 91 | 2.0 | 6.0 | 0.00 | 0.00 | 0.00 | 61 | 1009.8 |
| 20260905021534 | 86 | 63 | 2.0 | 6.0 | 0.00 | 0.00 | 0.00 | 61 | 1009.7 |
| 20260905021028 | 86 | 80 | 1.0 | 6.0 | 0.00 | 0.00 | 0.00 | 61 | 1009.6 |
| 20260905020526 | 86 | 56 | 2.0 | 9.0 | 0.00 | 0.00 | 0.00 | 61 | 1009.6 |
| 20260905020030 | 86 | 69 | 2.0 | 9.0 | 0.00 | 0.00 | 0.00 | 60 | 1009.5 |
| 20260905015527 | 86 | 64 | 4.0 | 8.0 | 0.00 | 0.00 | 0.00 | 60 | 1009.5 |
| 20260905015030 | 87 | 64 | 2.0 | 8.0 | 0.00 | 0.00 | 0.00 | 60 | 1009.5 |
| 20260905014526 | 87 | 82 | 3.0 | 8.0 | 0.00 | 0.00 | 0.00 | 60 | 1009.4 |
| 20260905014026 | 87 | 98 | 3.0 | 8.0 | 0.00 | 0.00 | 0.00 | 59 | 1009.4 |
| 20260905013527 | 87 | 79 | 3.0 | 7.0 | 0.00 | 0.00 | 0.00 | 59 | 1009.3 |
| 20260905013026 | 87 | 51 | 2.0 | 7.0 | 0.00 | 0.00 | 0.00 | 58 | 1009.3 |
| 20260905012525 | 88 | 94 | 2.0 | 9.0 | 0.00 | 0.00 | 0.00 | 58 | 1009.3 |
| 20260905012026 | 88 | 69 | 3.0 | 11.0 | 0.00 | 0.00 | 0.00 | 57 | 1009.2 |
| 20260905011524 | 88 | 96 | 4.0 | 11.0 | 0.00 | 0.00 | 0.00 | 56 | 1009.2 |
| 20260905011025 | 88 | 57 | 4.0 | 10.0 | 0.00 | 0.00 | 0.00 | 56 | 1009.1 |
| 20260905010526 | 89 | 80 | 2.0 | 8.0 | 0.00 | 0.00 | 0.00 | 55 | 1009.1 |
| 20260905010024 | 89 | 90 | 2.0 | 5.0 | 0.00 | 0.00 | 0.00 | 55 | 1009.1 |
| 20260905005525 | 89 | 64 | 1.0 | 4.0 | 0.00 | 0.00 | 0.00 | 55 | 1009.0 |
| 20260905005024 | 89 | 70 | 1.0 | 5.0 | 0.00 | 0.00 | 0.00 | 54 | 1008.9 |
| 20260905004529 | 89 | 63 | 2.0 | 5.0 | 0.00 | 0.00 | 0.00 | 54 | 1008.9 |
| 20260905004023 | 89 | 101 | 1.0 | 8.0 | 0.00 | 0.00 | 0.00 | 54 | 1008.8 |
| 20260905003526 | 90 | 61 | 0.0 | 8.0 | 0.00 | 0.00 | 0.00 | 54 | 1008.7 |
| 20260905003023 | 90 | 53 | 3.0 | 12.0 | 0.00 | 0.00 | 0.00 | 54 | 1008.7 |
| 20260905002524 | 90 | 89 | 5.0 | 12.0 | 0.00 | 0.00 | 0.00 | 54 | 1008.6 |
| 20260905002022 | 90 | 78 | 2.0 | 8.0 | 0.00 | 0.00 | 0.00 | 54 | 1008.6 |
| 20260905001522 | 90 | 107 | 3.0 | 7.0 | 0.00 | 0.00 | 0.00 | 54 | 1008.5 |
| 20260905001021 | 90 | 74 | 2.0 | 12.0 | 0.00 | 0.00 | 0.00 | 53 | 1008.5 |
| 20260905000522 | 91 | 51 | 4.0 | 12.0 | 0.00 | 0.00 | 0.00 | 53 | 1008.5 |
| 20260905000021 | 91 | 59 | 6.0 | 12.0 | 0.00 | 0.00 | 0.00 | 53 | 1008.3 |
| 20260904235523 | 91 | 93 | 2.0 | 13.0 | 0.00 | 0.00 | 0.00 | 53 | 1008.3 |
| 20260904235022 | 91 | 26 | 5.0 | 13.0 | 0.00 | 0.00 | 0.00 | 53 | 1008.3 |
| 20260904234522 | 91 | 60 | 4.0 | 10.0 | 0.00 | 0.00 | 0.00 | 53 | 1008.2 |
| 20260904234021 | 92 | 5 | 4.0 | 10.0 | 0.00 | 0.00 | 0.00 | 52 | 1008.2 |
| 20260904233520 | 92 | 98 | 4.0 | 9.0 | 0.00 | 0.00 | 0.00 | 53 | 1008.1 |
| 20260904233020 | 92 | 69 | 2.0 | 9.0 | 0.00 | 0.00 | 0.00 | 53 | 1008.1 |
| 20260904232519 | 92 | 58 | 1.0 | 7.0 | 0.00 | 0.00 | 0.00 | 53 | 1008.2 |
| 20260904232017 | 92 | 48 | 3.0 | 6.0 | 0.00 | 0.00 | 0.00 | 53 | 1008.3 |
| 20260904231516 | 91 | 11 | 1.0 | 4.0 | 0.00 | 0.00 | 0.00 | 54 | 1008.4 |
| 20260904231015 | 91 | 148 | 1.0 | 8.0 | 0.00 | 0.00 | 0.00 | 54 | 1008.4 |
| 20260904230514 | 91 | 92 | 3.0 | 9.0 | 0.00 | 0.00 | 0.00 | 54 | 1008.4 |
| 20260904230014 | 91 | 80 | 4.0 | 9.0 | 0.00 | 0.00 | 0.00 | 53 | 1008.4 |
| 20260904225515 | 91 | 53 | 2.0 | 6.0 | 0.00 | 0.00 | 0.00 | 53 | 1008.5 |
| 20260904225013 | 91 | 5 | 2.0 | 6.0 | 0.00 | 0.00 | 0.00 | 52 | 1008.5 |
| 20260904224513 | 91 | 101 | 2.0 | 9.0 | 0.00 | 0.00 | 0.00 | 52 | 1008.5 |
| 20260904224012 | 92 | 52 | 5.0 | 9.0 | 0.00 | 0.00 | 0.00 | 52 | 1008.5 |
| 20260904223512 | 92 | 132 | 1.0 | 5.0 | 0.00 | 0.00 | 0.00 | 52 | 1008.5 |
| 20260904223011 | 92 | 63 | 1.0 | 7.0 | 0.00 | 0.00 | 0.00 | 51 | 1008.6 |
| 20260904222513 | 92 | 143 | 1.0 | 7.0 | 0.00 | 0.00 | 0.00 | 51 | 1008.6 |
| 20260904222010 | 92 | 119 | 1.0 | 6.0 | 0.00 | 0.00 | 0.00 | 52 | 1008.5 |
| 20260904221510 | 92 | 180 | 1.0 | 6.0 | 0.00 | 0.00 | 0.00 | 51 | 1008.6 |
| 20260904221009 | 92 | 153 | 1.0 | 6.0 | 0.00 | 0.00 | 0.00 | 52 | 1008.7 |
| 20260904220513 | 92 | 144 | 1.0 | 7.0 | 0.00 | 0.00 | 0.00 | 52 | 1008.8 |
| 20260904220007 | 92 | 30 | 1.0 | 7.0 | 0.00 | 0.00 | 0.00 | 53 | 1008.9 |
| 20260904215505 | 90 | 63 | 4.0 | 8.0 | 0.00 | 0.00 | 0.00 | 55 | 1008.9 |
| 20260904215007 | 91 | 82 | 2.0 | 8.0 | 0.00 | 0.00 | 0.00 | 55 | 1009.0 |
| 20260904214505 | 91 | 15 | 2.0 | 7.0 | 0.00 | 0.00 | 0.00 | 55 | 1009.1 |
| 20260904214004 | 91 | 103 | 2.0 | 6.0 | 0.00 | 0.00 | 0.00 | 55 | 1009.2 |
| 20260904213504 | 91 | 73 | 3.0 | 9.0 | 0.00 | 0.00 | 0.00 | 56 | 1009.2 |
| 20260904213004 | 91 | 61 | 3.0 | 9.0 | 0.00 | 0.00 | 0.00 | 55 | 1009.3 |
| 20260904212505 | 91 | 42 | 1.0 | 7.0 | 0.00 | 0.00 | 0.00 | 56 | 1009.3 |
| 20260904212003 | 90 | 188 | 0.0 | 5.0 | 0.00 | 0.00 | 0.00 | 57 | 1009.4 |
| 20260904211603 | 90 | 5 | 1.0 | 5.0 | 0.00 | 0.00 | 0.00 | 57 | 1009.5 |
| 20260904211059 | 90 | 70 | 1.0 | 4.0 | 0.00 | 0.00 | 0.00 | 57 | 1009.6 |
| 20260904210559 | 90 | 199 | 1.0 | 4.0 | 0.00 | 0.00 | 0.00 | 57 | 1009.6 |
| 20260904210105 | 89 | 206 | 1.0 | 4.0 | 0.00 | 0.00 | 0.00 | 58 | 1009.7 |
| 20260904205558 | 89 | 136 | 1.0 | 6.0 | 0.00 | 0.00 | 0.00 | 58 | 1009.8 |
| 20260904205101 | 89 | 157 | 2.0 | 6.0 | 0.00 | 0.00 | 0.00 | 59 | 1009.9 |
| 20260904204557 | 89 | 86 | 3.0 | 6.0 | 0.00 | 0.00 | 0.00 | 59 | 1009.9 |
| 20260904204056 | 89 | 37 | 1.0 | 4.0 | 0.00 | 0.00 | 0.00 | 59 | 1009.9 |
| 20260904203557 | 89 | 203 | 0.0 | 6.0 | 0.00 | 0.00 | 0.00 | 61 | 1010.0 |
| 20260904203055 | 88 | 84 | 2.0 | 6.0 | 0.00 | 0.00 | 0.00 | 62 | 1010.0 |
| 20260904202556 | 88 | 74 | 1.0 | 4.0 | 0.00 | 0.00 | 0.00 | 62 | 1010.0 |
| 20260904202053 | 88 | 201 | 0.0 | 3.0 | 0.00 | 0.00 | 0.00 | 63 | 1010.1 |
| 20260904201619 | 88 | 76 | 0.0 | 4.0 | 0.00 | 0.00 | 0.00 | 64 | 1010.1 |
| 20260904201053 | 88 | 5 | 0.0 | 5.0 | 0.00 | 0.00 | 0.00 | 64 | 1010.1 |
| 20260904200553 | 88 | 163 | 1.0 | 5.0 | 0.00 | 0.00 | 0.00 | 64 | 1010.1 |
| 20260904200058 | 88 | 31 | 2.0 | 4.0 | 0.00 | 0.00 | 0.00 | 64 | 1010.1 |
| 20260904195553 | 87 | 56 | 1.0 | 5.0 | 0.00 | 0.00 | 0.00 | 64 | 1010.1 |
| 20260904195053 | 87 | 81 | 2.0 | 6.0 | 0.00 | 0.00 | 0.00 | 65 | 1010.2 |
| 20260904194604 | 87 | 40 | 2.0 | 6.0 | 0.00 | 0.00 | 0.00 | 65 | 1010.2 |
| 20260904194052 | 87 | 42 | 1.0 | 4.0 | 0.00 | 0.00 | 0.00 | 65 | 1010.2 |
| 20260904193552 | 87 | 60 | 0.0 | 4.0 | 0.00 | 0.00 | 0.00 | 65 | 1010.3 |
| 20260904193052 | 87 | 78 | 1.0 | 5.0 | 0.00 | 0.00 | 0.00 | 66 | 1010.3 |
| 20260904192551 | 87 | 111 | 2.0 | 5.0 | 0.00 | 0.00 | 0.00 | 65 | 1010.4 |
| 20260904192050 | 87 | 150 | 1.0 | 8.0 | 0.00 | 0.00 | 0.00 | 66 | 1010.4 |
| 20260904191555 | 86 | 355 | 1.0 | 9.0 | 0.00 | 0.00 | 0.00 | 67 | 1010.5 |